Location: Keewatin
(47.4004°N, 93.0827°W)
Time: 05:58:33
(UTC+00:00)

ZACube-1 - Pass Details

Date: 01 March 2020
Orbit: 583 x 667 km, 97.6° (Epoch: 07 April)

Event Time Altitude Azimuth Distance (km) Brightness Sun altitude
Rises 12:07:02 0° 15° (NNE) 3,018 ? -8.3°
Reaches altitude 10° 12:09:18 10° 18° (NNE) 2,095 ? -7.9°
Maximum altitude 12:13:51 65° 101° (E) 723 ? -7.2°
Drops below altitude 10° 12:18:18 10° 184° (S) 2,043 ? -6.4°
Sets 12:20:30 0° 187° (S) 2,936 ? -6.0°
